This demonstration page uses our WeatherBlox Daily Observations layout. Learn more.

Hourly Observations for July 1, 2019

Temp ( °F °C ) Dew Point ( °F °C ) Humidity (%) Winds ( mph kmh ) Pressure ( in mb ) Visibility ( mi km ) Precip ( " mm )
12:15 am 00:15 Clear 76 24.2 64 18 68 68 S 10 17 29.91 1013 10 16.09344 0 0
12:35 am 00:35 Clear 75 24 65 18.2 70 70 S 9 15 29.91 1013 10 16.09344 0 0
12:55 am 00:55 Clear 74 23.2 65 18.5 75 75 S 8 13 29.94 1014 10 16.09344 0 0
1:15 am 01:15 Clear 73 22.5 65 18.5 78 78 S 7 11 29.94 1014 10 16.09344 0 0
1:35 am 01:35 Clear 72 22.3 65 18.6 80 80 S 8 13 29.94 1014 10 16.09344 0 0
1:55 am 01:55 Clear 73 22.5 66 18.7 79 79 S 7 11 29.94 1014 10 16.09344 0 0
2:15 am 02:15 Clear 72 22.2 66 18.7 81 81 S 9 15 29.94 1014 10 16.09344 0 0
2:35 am 02:35 Clear 73 22.6 65 18.6 78 78 SSW 9 15 29.94 1014 10 16.09344 0 0
2:55 am 02:55 Clear 71 21.8 66 18.7 83 83 SW 6 9 29.94 1014 10 16.09344 0 0
3:15 am 03:15 Clear 71 21.6 65 18.6 83 83 SSW 6 9 29.97 1015 10 16.09344 0 0
3:35 am 03:35 Clear 71 21.5 65 18.5 83 83 SSW 6 9 29.94 1014 10 16.09344 0 0
3:55 am 03:55 Clear 70 21.3 65 18.2 83 83 SSW 7 11 29.94 1014 10 16.09344 0 0
4:15 am 04:15 Clear 71 21.5 64 18 81 81 SSW 9 15 29.94 1014 10 16.09344 0 0
4:35 am 04:35 Clear 71 21.5 65 18.1 81 81 S 9 15 29.91 1013 10 16.09344 0 0
4:55 am 04:55 Clear 70 21 65 18.3 85 85 S 9 15 29.91 1013 10 16.09344 0 0
5:15 am 05:15 Clear 69 20.8 65 18.5 87 87 SW 6 9 29.94 1014 10 16.09344 0 0
5:35 am 05:35 Clear 69 20.7 65 18.6 88 88 S 8 13 29.94 1014 10 16.09344 0 0
5:55 am 05:55 Clear 69 20.8 66 18.7 88 88 SSW 8 13 29.94 1014 10 16.09344 0 0
6:15 am 06:15 Sunny 69 20.3 66 18.7 91 91 S 7 11 29.94 1014 10 16.09344 0 0
6:35 am 06:35 Sunny 69 20.5 66 18.9 91 91 S 5 7 29.94 1014 10 16.09344 0 0
6:55 am 06:55 Sunny 69 20.5 66 19 91 91 S 7 11 29.94 1014 10 16.09344 0 0
7:15 am 07:15 Sunny 69 20.8 66 19.1 90 90 S 7 11 29.91 1013 10 16.09344 0 0
7:35 am 07:35 Sunny 70 21.2 67 19.2 88 88 S 9 15 29.91 1013 10 16.09344 0 0
7:55 am 07:55 Sunny 71 21.5 67 19.3 87 87 S 10 17 29.91 1013 10 16.09344 0 0
8:15 am 08:15 Sunny 72 22.2 67 19.5 85 85 S 10 17 29.91 1013 10 16.09344 0 0
8:35 am 08:35 Sunny 74 23.3 68 19.8 81 81 S 13 20 29.88 1012 10 16.09344 0 0
8:55 am 08:55 Sunny 76 24.4 67 19.7 75 75 S 12 19 29.88 1012 10 16.09344 0 0
9:15 am 09:15 Sunny 78 25.3 67 19.7 71 71 SSW 14 22 29.88 1012 10 16.09344 0 0
9:35 am 09:35 Sunny 78 25.8 68 19.8 70 70 S 14 22 29.88 1012 10 16.09344 0 0
9:55 am 09:55 Sunny 80 26.5 68 20.2 68 68 SSW 13 20 29.88 1012 10 16.09344 0 0
10:15 am 10:15 Sunny 80 26.9 68 20.1 66 66 SSW 13 20 29.85 1011 10 16.09344 0 0
10:35 am 10:35 Sunny 82 27.5 68 20.1 64 64 SSW 13 20 29.85 1011 10 16.09344 0 0
10:55 am 10:55 Sunny 82 28 69 20.3 63 63 S 16 26 29.85 1011 10 16.09344 0 0
11:15 am 11:15 Sunny 83 28.2 69 20.4 63 63 S 14 22 29.85 1011 10 16.09344 0 0
11:35 am 11:35 Sunny 84 28.7 69 20.6 62 62 SSW 15 24 29.85 1011 10 16.09344 0 0
11:55 am 11:55 Sunny 85 29.2 70 21.1 62 62 S 15 24 29.85 1011 10 16.09344 0 0
12:15 pm 12:15 Sunny 85 29.3 68 20.2 58 58 S 16 26 29.85 1011 10 16.09344 0 0
12:35 pm 12:35 Sunny 86 29.8 69 20.6 58 58 SW 10 17 29.85 1011 10 16.09344 0 0
12:55 pm 12:55 Sunny 86 30.2 69 20.8 57 57 S 13 20 29.85 1011 10 16.09344 0 0
1:15 pm 13:15 Sunny 88 30.9 69 20.6 54 54 SSW 13 20 29.8 1009 10 16.09344 0 0
1:35 pm 13:35 Sunny 88 31 70 20.9 55 55 S 10 17 29.8 1009 10 16.09344 0 0
1:55 pm 13:55 Partly Cloudy 89 31.4 69 20.7 53 53 SSW 10 17 29.8 1009 10 16.09344 0 0
2:15 pm 14:15 Partly Cloudy 89 31.7 70 20.9 53 53 S 10 17 29.8 1009 10 16.09344 0 0
2:35 pm 14:35 Sunny 89 31.6 69 20.5 52 52 S 9 15 29.8 1009 10 16.09344 0 0
2:55 pm 14:55 Partly Cloudy 89 31.4 69 20.5 52 52 S 15 24 29.8 1009 10 16.09344 0 0
3:15 pm 15:15 Partly Cloudy 89 31.6 68 20.2 51 51 S 13 20 29.8 1009 10 16.09344 0 0
3:35 pm 15:35 Sunny 89 31.7 68 20.1 50 50 SSE 13 20 29.8 1009 10 16.09344 0 0
3:55 pm 15:55 Sunny 88 31.2 67 19.5 50 50 SSE 8 13 29.8 1009 10 16.09344 0 0
4:15 pm 16:15 Sunny 88 31 67 19.5 50 50 S 9 15 29.77 1008 10 16.09344 0 0
4:35 pm 16:35 Sunny 89 31.9 68 19.9 49 49 SSE 12 19 29.77 1008 10 16.09344 0 0
4:55 pm 16:55 Sunny 88 31.3 67 19.4 49 49 S 13 20 29.77 1008 10 16.09344 0 0
5:10 pm 17:10 Sunny 90 32.2 67 19.5 47 47 SSE 10 17 29.77 1008 10 16.09344 0 0
5:35 pm 17:35 Sunny 89 31.9 65 18.4 45 45 SSE 13 20 29.74 1007 10 16.09344 0 0
5:55 pm 17:55 Sunny 89 31.8 64 17.8 43 43 SSE 10 17 29.74 1007 10 16.09344 0 0
6:15 pm 18:15 Sunny 89 31.6 64 17.5 43 43 S 10 17 29.74 1007 10 16.09344 0 0
6:35 pm 18:35 Sunny 86 29.9 63 17.2 46 46 SSE 8 13 29.74 1007 10 16.09344 0 0
6:55 pm 18:55 Sunny 84 28.9 64 17.6 50 50 SSE 3 6 29.77 1008 10 16.09344 0 0
7:15 pm 19:15 Sunny with Nearby Thunderstorms 83 28.2 65 18.5 56 56 SSE 3 6 29.77 1008 10 16.09344 0 0
7:35 pm 19:35 Sunny 82 28 66 18.9 58 58 SSE 6 9 29.77 1008 10 16.09344 0 0
7:55 pm 19:55 Sunny 82 27.5 66 18.7 59 59 SSE 7 11 29.77 1008 10 16.09344 0 0
8:15 pm 20:15 Sunny 81 27.2 66 18.7 60 60 SSE 5 7 29.77 1008 10 16.09344 0 0
8:35 pm 20:35 Sunny 81 27 66 18.7 60 60 S 3 6 29.8 1009 10 16.09344 0 0
8:55 pm 20:55 Sunny 80 26.8 65 18.5 60 60 SSW 5 7 29.8 1009 10 16.09344 0 0
9:15 pm 21:15 Clear 77 25 67 19.6 72 72 W 5 7 29.83 1010 10 16.09344 0 0
9:35 pm 21:35 Partly Cloudy 79 26.3 64 18 60 60 SW 5 7 29.8 1009 10 16.09344 0 0
9:55 pm 21:55 Clear 80 26.8 64 17.8 58 58 SW 3 6 29.8 1009 10 16.09344 0 0
10:15 pm 22:15 Clear 78 25.6 66 18.8 66 66 Calm 29.83 1010 10 16.09344 0 0
10:35 pm 22:35 Clear 76 24.4 68 19.8 76 76 Calm 29.83 1010 10 16.09344 0 0
10:55 pm 22:55 Clear 75 23.8 68 20.1 80 80 Calm 29.83 1010 10 16.09344 0 0
11:15 pm 23:15 Clear 74 23.4 69 20.3 83 83 Calm 29.83 1010 10 16.09344 0 0
11:35 pm 23:35 Clear 73 22.8 69 20.5 87 87 N 5 7 29.85 1011 10 16.09344 0 0
11:55 pm 23:55 Partly Cloudy 72 22 69 20.8 93 93 NNE 6 9 29.88 1012 10 16.09344 0 0

Powered by AerisWeather